Location: *
(40.7873°S, 98.7174°E)
Time: 23:50:24
(UTC+00:00)

Hubble Space Telescope - Pass Details

Date: 16 August 2022
Orbit: 532 x 535 km, 28.5° (Epoch: 23 September)

Event Time Altitude Azimuth Distance (km) Brightness Sun altitude
Exits shadow 23:27:20 - 303° (WNW) 2,282 3.5 -9.1°
Reaches altitude 10° 23:29:29 10° 325° (NW) 1,784 3.2 -8.7°
Maximum altitude 23:31:14 12° 350° (N) 1,633 3.3 -8.4°
Drops below altitude 10° 23:32:58 10° 15° (NNE) 1,781 3.8 -8.1°
Sets 23:36:25 0° 45° (NE) 2,667 5.4 -7.5°
